Terug naar catalogus

STARLINK-5708

ActiefCommunicatieVLEO
NORAD 55470·PAYLOAD·🇺🇸 United States

Gelanceerd Feb 2, 2023 vanaf Cape Canaveral Space Force Station

Loading…

Volgende Passages (komende 24 uur)

TLE

VersSource: CelesTrak SupGP

Epoch: Sep 15, 2026, 01:41 UTC

1 55470C 23015X   26258.07062500  .00019603  00000+0  71009-3 0  2581
2 55470  43.0029 339.2721 0001422 264.3035 127.3147 15.27565794    17

Volg STARLINK-5708 in realtime met AllMySat

Download on the App Store